Regional Weather Roundup
Issued by NWS

Home | Current Version | Previous Version | Text Only | Print | Product List | Glossary Off
Versions: 1 2 3 4 5 6 7 8 9 10 11 12 13 14 15 16 17 18 19 20 21 22 23 24 25 26 27 28 29 30 31 32 33 34 35 36 37 38 39 40 41 42 43 44 45 46 47 48 49 50

000
ASUS43 KFSD 281710
RWRSD

WEATHER ROUNDUP FOR SOUTH DAKOTA
NATIONAL WEATHER SERVICE SIOUX FALLS SD
1100 AM CST SAT FEB 28 2015

NOTE: "FAIR" INDICATES FEW OR NO CLOUDS BELOW 12,000 FEET WITH NO
SIGNIFICANT WEATHER AND/OR OBSTRUCTIONS TO VISIBILITY.


SDZ001>005-009-010-012>017-281800-
NORTHWEST AND NORTH CENTRAL SOUTH DAKOTA

CITY           SKY/WX    TMP DP  RH WIND       PRES   REMARKS
BUFFALO          N/A     12   3  67 NW24G33   30.05R WCI  -8
FAITH            N/A     21   5  50 NW23G32   30.10S WCI   5
MOBRIDGE       CLOUDY    21  11  65 SW8       30.09S WCI  11
$$

SDZ012>016-024>037-041>051-057-063-072>074-281800-
SOUTHWEST AND SOUTH CENTRAL SOUTH DAKOTA

CITY           SKY/WX    TMP DP  RH WIND       PRES   REMARKS
RAPID CTY ARPT SUNNY     19   6  57 N22       30.10S WCI   2
PIERRE         SUNNY     25  10  53 SW9       30.15S WCI  15
CUSTER         SUNNY     20   7  57 VRB5      29.93F WCI  13
ELLSWORTH AFB  SUNNY     19   4  51 N20       30.09S WCI   3
PHILIP         MOSUNNY   26   6  42 NW17      30.15R WCI  13
PINE RIDGE     SUNNY     23   8  52 N6        30.11S WCI  16
WINNER         FAIR      26   7  44 SW18      30.18F WCI  13
$$

SDZ004>011-016>023-039-040-281800-
NORTHEAST SOUTH DAKOTA

CITY           SKY/WX    TMP DP  RH WIND       PRES   REMARKS
ABERDEEN       PTSUNNY   17   7  64 S20       30.22F WCI   1
WATERTOWN      SUNNY     15   7  70 S18G25    30.24F WCI  -2
SISSETON         N/A     18   8  65 S17       30.26  WCI   3
$$

SDZ017-020-022-023-036>040-048>070-281800-
SOUTHEAST SOUTH DAKOTA

CITY           SKY/WX    TMP DP  RH WIND       PRES   REMARKS
SIOUX FALLS    MOSUNNY   17   8  67 S22       30.34F WCI   0
HURON          SUNNY     21  10  62 S20       30.26F WCI   6
CHAMBERLAIN    SUNNY     26   9  49 SW17G23   30.21S WCI  12
MITCHELL       SUNNY     24   8  50 SW17G24   30.30F WCI  11
YANKTON        SUNNY     21   7  53 S20       30.36F WCI   6
$$

ABBREVIATIONS USED IN REMARKS
   TC - TEMPERATURE IN CELSIUS
  WCI - WIND CHILL INDEX
   HX - HEAT INDEX
  VSB - VISIBILITY




USA.gov is the U.S. government's official web portal to all federal, state and local government web resources and services.